| time (UTC) | temp C | wind direction | speed KPH | gust KPH | rain 1hr cm | rain 24hr cm | rain mn cm | humidity % | barometer mb |
| 20260504205712 | 13 | 343 | 29.0 | 41.8 | 0.00 | 0.00 | 0.00 | 43 | 1010.4 |
| 20260504205212 | 12 | 337 | 27.4 | 51.5 | 0.00 | 0.00 | 0.00 | 43 | 1010.5 |
| 20260504204711 | 12 | 319 | 32.2 | 51.5 | 0.00 | 0.00 | 0.00 | 42 | 1010.6 |
| 20260504204212 | 12 | 306 | 30.6 | 46.7 | 0.00 | 0.00 | 0.00 | 44 | 1010.6 |
| 20260504203712 | 12 | 338 | 20.9 | 43.5 | 0.00 | 0.00 | 0.00 | 45 | 1010.7 |
| 20260504202211 | 12 | 0 | 20.9 | 43.5 | 0.00 | 0.00 | 0.00 | 44 | 1011.0 |
| 20260504201711 | 12 | 327 | 25.7 | 41.8 | 0.00 | 0.00 | 0.00 | 44 | 1010.7 |
| 20260504201211 | 12 | 316 | 30.6 | 43.5 | 0.00 | 0.00 | 0.00 | 44 | 1010.8 |
| 20260504200711 | 12 | 320 | 27.4 | 43.5 | 0.00 | 0.00 | 0.00 | 46 | 1011.0 |
| 20260504200211 | 12 | 321 | 32.2 | 46.7 | 0.00 | 0.00 | 0.00 | 44 | 1010.6 |
| 20260504195711 | 12 | 321 | 30.6 | 49.9 | 0.00 | 0.00 | 0.00 | 45 | 1010.9 |
| 20260504195210 | 12 | 326 | 37.0 | 49.9 | 0.00 | 0.00 | 0.00 | 45 | 1010.8 |
| 20260504194711 | 12 | 326 | 27.4 | 41.8 | 0.00 | 0.00 | 0.00 | 47 | 1010.6 |
| 20260504194211 | 12 | 316 | 25.7 | 41.8 | 0.00 | 0.00 | 0.00 | 48 | 1010.5 |
| 20260504193711 | 12 | 0 | 29.0 | 41.8 | 0.00 | 0.00 | 0.00 | 47 | 1010.9 |
| 20260504193211 | 12 | 350 | 27.4 | 45.1 | 0.00 | 0.00 | 0.00 | 48 | 1011.0 |
| 20260504192709 | 12 | 340 | 30.6 | 45.1 | 0.00 | 0.00 | 0.00 | 48 | 1011.0 |
| 20260504192209 | 12 | 331 | 33.8 | 43.5 | 0.00 | 0.00 | 0.00 | 48 | 1010.4 |
| 20260504191710 | 12 | 326 | 30.6 | 43.5 | 0.00 | 0.00 | 0.00 | 48 | 1010.6 |
| 20260504191210 | 12 | 351 | 30.6 | 48.3 | 0.00 | 0.00 | 0.00 | 49 | 1010.5 |
| 20260504190208 | 11 | 324 | 25.7 | 38.6 | 0.00 | 0.00 | 0.00 | 50 | 1010.6 |
| 20260504185709 | 11 | 314 | 24.1 | 41.8 | 0.00 | 0.00 | 0.00 | 49 | 1010.5 |
| 20260504184209 | 12 | 309 | 30.6 | 43.5 | 0.00 | 0.00 | 0.00 | 50 | 1010.5 |
| 20260504183710 | 11 | 336 | 27.4 | 35.4 | 0.00 | 0.00 | 0.00 | 49 | 1010.6 |
| 20260504182709 | 12 | 326 | 25.7 | 37.0 | 0.00 | 0.00 | 0.00 | 49 | 1010.6 |
| 20260504182209 | 11 | 336 | 17.7 | 35.4 | 0.00 | 0.00 | 0.00 | 52 | 1010.7 |
| 20260504181708 | 11 | 355 | 22.5 | 41.8 | 0.00 | 0.00 | 0.00 | 51 | 1010.6 |
| 20260504181207 | 11 | 343 | 27.4 | 43.5 | 0.00 | 0.00 | 0.00 | 50 | 1010.6 |
| 20260504180708 | 11 | 357 | 30.6 | 45.1 | 0.00 | 0.00 | 0.00 | 50 | 1010.6 |
| 20260504175709 | 11 | 334 | 25.7 | 45.1 | 0.00 | 0.00 | 0.00 | 50 | 1010.5 |
| 20260504175207 | 11 | 348 | 30.6 | 45.1 | 0.00 | 0.00 | 0.00 | 48 | 1010.5 |
| 20260504174707 | 11 | 336 | 24.1 | 35.4 | 0.00 | 0.00 | 0.00 | 50 | 1010.5 |
| 20260504174208 | 11 | 0.0 | 33.8 | 0.00 | 0.00 | 0.00 | 50 | 1010.3 | |
| 20260504173707 | 11 | 327 | 33.8 | 33.8 | 0.00 | 0.00 | 0.00 | 49 | 1010.3 |
| 20260504173207 | 11 | 0 | 27.4 | 38.6 | 0.00 | 0.00 | 0.00 | 48 | 1010.1 |
| 20260504172707 | 12 | 323 | 24.1 | 38.6 | 0.00 | 0.00 | 0.00 | 49 | 1009.6 |
| 20260504172206 | 12 | 350 | 17.7 | 49.9 | 0.00 | 0.00 | 0.00 | 49 | 1010.1 |
| 20260504171706 | 12 | 326 | 30.6 | 49.9 | 0.00 | 0.00 | 0.00 | 48 | 1010.1 |
| 20260504171206 | 12 | 0 | 30.6 | 45.1 | 0.00 | 0.00 | 0.00 | 48 | 1010.3 |
| 20260504170708 | 12 | 338 | 24.1 | 38.6 | 0.00 | 0.00 | 0.00 | 48 | 1010.1 |
| 20260504170206 | 12 | 355 | 32.2 | 43.5 | 0.00 | 0.00 | 0.00 | 48 | 1010.1 |
| 20260504160206 | 12 | 350 | 25.7 | 45.1 | 0.00 | 0.00 | 0.00 | 45 | 1008.9 |
| 20260504150704 | 12 | 327 | 24.1 | 43.5 | 0.00 | 0.00 | 0.00 | 47 | 1008.5 |
| 20260504150204 | 12 | 317 | 27.4 | 37.0 | 0.00 | 0.00 | 0.00 | 49 | 1008.5 |
| 20260504141203 | 11 | 354 | 16.1 | 27.4 | 0.00 | 0.00 | 0.00 | 67 | 1008.0 |
| 20260504140704 | 10 | 313 | 19.3 | 25.7 | 0.00 | 0.00 | 0.00 | 67 | 1008.0 |
| 20260504140201 | 10 | 331 | 16.1 | 27.4 | 0.00 | 0.00 | 0.00 | 67 | 1008.0 |
| 20260504130702 | 8 | 345 | 6.4 | 9.7 | 0.00 | 0.00 | 0.00 | 79 | 1007.2 |
| 20260504130200 | 8 | 317 | 8.0 | 9.7 | 0.00 | 0.00 | 0.00 | 79 | 1007.1 |
| 20260504120200 | -17 | 348 | 8.0 | 11.3 | 0.00 | 0.00 | 0.00 | 1006.1 | |
| 20260504100157 | 7 | 321 | 9.7 | 16.1 | 0.00 | 0.00 | 0.00 | 82 | 1004.2 |
| 20260504081654 | 11 | 245 | 22.5 | 29.0 | 0.00 | 0.00 | 0.00 | 74 | 1002.6 |
| 20260504081154 | 11 | 241 | 22.5 | 30.6 | 0.00 | 0.00 | 0.00 | 74 | 1002.3 |
| 20260504080653 | 11 | 240 | 25.7 | 30.6 | 0.00 | 0.00 | 0.00 | 74 | 1002.7 |
| 20260504080154 | 11 | 241 | 22.5 | 27.4 | 0.00 | 0.00 | 0.00 | 74 | 1002.7 |
| 20260504070152 | 10 | 264 | 12.9 | 17.7 | 0.00 | 0.00 | 0.00 | 75 | 1004.1 |
| 20260504060150 | 12 | 240 | 19.3 | 24.1 | 0.00 | 0.00 | 0.00 | 65 | 1004.6 |
| 20260504050649 | 13 | 217 | 25.7 | 30.6 | 0.00 | 0.00 | 0.00 | 59 | 1004.8 |
| 20260504050148 | 12 | 216 | 20.9 | 27.4 | 0.00 | 0.00 | 0.00 | 59 | 1005.0 |
| 20260504045150 | 12 | 210 | 19.3 | 22.5 | 0.00 | 0.00 | 0.00 | 61 | 1005.2 |
| 20260504044649 | 11 | 203 | 19.3 | 22.5 | 0.00 | 0.00 | 0.00 | 62 | 1005.2 |
| 20260504044148 | 11 | 216 | 17.7 | 20.9 | 0.00 | 0.00 | 0.00 | 63 | 1005.4 |
| 20260504043649 | 11 | 212 | 16.1 | 22.5 | 0.00 | 0.00 | 0.00 | 62 | 1005.4 |
| 20260504043147 | 11 | 213 | 17.7 | 22.5 | 0.00 | 0.00 | 0.00 | 62 | 1005.4 |
| 20260504042147 | 11 | 209 | 17.7 | 25.7 | 0.00 | 0.00 | 0.00 | 60 | 1005.6 |
| 20260504041647 | 12 | 214 | 20.9 | 27.4 | 0.00 | 0.00 | 0.00 | 60 | 1005.5 |
| 20260504041148 | 11 | 209 | 22.5 | 27.4 | 0.00 | 0.00 | 0.00 | 60 | 1005.4 |
| 20260504040648 | 11 | 207 | 19.3 | 20.9 | 0.00 | 0.00 | 0.00 | 60 | 1005.6 |
| 20260504040147 | 11 | 209 | 14.5 | 20.9 | 0.00 | 0.00 | 0.00 | 59 | 1005.6 |
| 20260504035648 | 11 | 209 | 17.7 | 20.9 | 0.00 | 0.00 | 0.00 | 59 | 1005.7 |
| 20260504035146 | 11 | 202 | 16.1 | 19.3 | 0.00 | 0.00 | 0.00 | 60 | 1005.6 |
| 20260504034147 | 11 | 203 | 14.5 | 20.9 | 0.00 | 0.00 | 0.00 | 60 | 1005.8 |
| 20260504033646 | 12 | 202 | 14.5 | 20.9 | 0.00 | 0.00 | 0.00 | 59 | 1005.8 |
| 20260504033147 | 12 | 202 | 17.7 | 20.9 | 0.00 | 0.00 | 0.00 | 59 | 1005.9 |
| 20260504032645 | 11 | 209 | 16.1 | 20.9 | 0.00 | 0.00 | 0.00 | 59 | 1005.9 |
| 20260504032147 | 11 | 196 | 11.3 | 14.5 | 0.00 | 0.00 | 0.00 | 60 | 1005.9 |
| 20260504031647 | 11 | 0.0 | 16.1 | 0.00 | 0.00 | 0.00 | 62 | 1005.9 | |
| 20260504031145 | 11 | 197 | 12.9 | 16.1 | 0.00 | 0.00 | 0.00 | 62 | 1006.1 |
| 20260504030646 | 11 | 197 | 9.7 | 14.5 | 0.00 | 0.00 | 0.00 | 63 | 1006.2 |
| 20260504030145 | 11 | 197 | 9.7 | 14.5 | 0.00 | 0.00 | 0.00 | 63 | 1006.2 |
| 20260504025646 | 11 | 196 | 8.0 | 16.1 | 0.00 | 0.00 | 0.00 | 64 | 1006.4 |
| 20260504025145 | 10 | 195 | 9.7 | 16.1 | 0.00 | 0.00 | 0.00 | 64 | 1006.4 |
| 20260504024646 | 10 | 192 | 9.7 | 14.5 | 0.00 | 0.00 | 0.00 | 65 | 1006.5 |
| 20260504024146 | 10 | 193 | 9.7 | 14.5 | 0.00 | 0.00 | 0.00 | 64 | 1006.6 |
| 20260504023646 | 10 | 195 | 8.0 | 11.3 | 0.00 | 0.00 | 0.00 | 64 | 1006.7 |
| 20260504023144 | 10 | 190 | 9.7 | 14.5 | 0.00 | 0.00 | 0.00 | 63 | 1006.8 |
| 20260504022644 | 10 | 199 | 11.3 | 16.1 | 0.00 | 0.00 | 0.00 | 62 | 1006.8 |
| 20260504021644 | 11 | 200 | 12.9 | 14.5 | 0.00 | 0.00 | 0.00 | 61 | 1006.8 |
| 20260504021146 | 11 | 199 | 11.3 | 16.1 | 0.00 | 0.00 | 0.00 | 61 | 1006.8 |
| 20260504020644 | 11 | 199 | 12.9 | 17.7 | 0.00 | 0.00 | 0.00 | 60 | 1006.9 |
| 20260504020144 | 11 | 204 | 16.1 | 17.7 | 0.00 | 0.00 | 0.00 | 59 | 1006.9 |
| 20260504015643 | 11 | 203 | 14.5 | 16.1 | 0.00 | 0.00 | 0.00 | 57 | 1007.0 |
| 20260504015145 | 12 | 209 | 14.5 | 16.1 | 0.00 | 0.00 | 0.00 | 54 | 1007.0 |
| 20260504014143 | 13 | 221 | 11.3 | 14.5 | 0.00 | 0.00 | 0.00 | 51 | 1007.3 |
| 20260504013644 | 14 | 224 | 9.7 | 11.3 | 0.00 | 0.00 | 0.00 | 48 | 1007.4 |
| 20260504012644 | 15 | 224 | 9.7 | 14.5 | 0.00 | 0.00 | 0.00 | 45 | 1007.5 |
| 20260504012142 | 16 | 240 | 11.3 | 14.5 | 0.00 | 0.00 | 0.00 | 45 | 1007.7 |
| 20260504011643 | 16 | 248 | 9.7 | 11.3 | 0.00 | 0.00 | 0.00 | 44 | 1007.6 |
| 20260504011143 | 17 | 248 | 9.7 | 16.1 | 0.00 | 0.00 | 0.00 | 43 | 1007.8 |
| 20260504010642 | 17 | 261 | 11.3 | 17.7 | 0.00 | 0.00 | 0.00 | 41 | 1007.9 |
| 20260504010144 | 18 | 262 | 12.9 | 17.7 | 0.00 | 0.00 | 0.00 | 39 | 1008.0 |
| 20260504005642 | 18 | 255 | 14.5 | 17.7 | 0.00 | 0.00 | 0.00 | 38 | 1007.9 |
| 20260504005142 | 19 | 257 | 14.5 | 22.5 | 0.00 | 0.00 | 0.00 | 38 | 1008.0 |
| 20260504004143 | 20 | 268 | 16.1 | 24.1 | 0.00 | 0.00 | 0.00 | 35 | 1008.3 |
| 20260504002643 | 20 | 255 | 17.7 | 25.7 | 0.00 | 0.00 | 0.00 | 35 | 1008.4 |
| 20260504002143 | 20 | 259 | 17.7 | 30.6 | 0.00 | 0.00 | 0.00 | 34 | 1008.5 |
| 20260504001641 | 20 | 245 | 20.9 | 30.6 | 0.00 | 0.00 | 0.00 | 34 | 1008.6 |
| 20260504001143 | 20 | 255 | 20.9 | 30.6 | 0.00 | 0.00 | 0.00 | 35 | 1008.7 |
| 20260504000641 | 20 | 281 | 14.5 | 30.6 | 0.00 | 0.00 | 0.00 | 35 | 1008.7 |
| 20260503235641 | 20 | 247 | 24.1 | 32.2 | 0.00 | 0.00 | 0.00 | 34 | 1008.8 |
| 20260503235143 | 20 | 258 | 24.1 | 32.2 | 0.00 | 0.00 | 0.00 | 33 | 1009.0 |
| 20260503234641 | 21 | 262 | 19.3 | 27.4 | 0.00 | 0.00 | 0.00 | 32 | 1009.1 |
| 20260503234141 | 21 | 272 | 22.5 | 38.6 | 0.00 | 0.00 | 0.00 | 31 | 1009.1 |
| 20260503233641 | 21 | 290 | 27.4 | 38.6 | 0.00 | 0.00 | 0.00 | 31 | 1009.3 |
| 20260503233140 | 21 | 303 | 17.7 | 30.6 | 0.00 | 0.00 | 0.00 | 33 | 1009.3 |
| 20260503232641 | 21 | 282 | 20.9 | 33.8 | 0.00 | 0.00 | 0.00 | 30 | 1009.4 |
| 20260503232140 | 21 | 286 | 22.5 | 33.8 | 0.00 | 0.00 | 0.00 | 31 | 1009.4 |
| 20260503231140 | 21 | 257 | 27.4 | 33.8 | 0.00 | 0.00 | 0.00 | 32 | 1009.5 |
| 20260503230641 | 21 | 262 | 20.9 | 35.4 | 0.00 | 0.00 | 0.00 | 31 | 1009.4 |
| 20260503230140 | 21 | 264 | 14.5 | 35.4 | 0.00 | 0.00 | 0.00 | 30 | 1009.6 |
| 20260503225141 | 21 | 240 | 24.1 | 30.6 | 0.00 | 0.00 | 0.00 | 31 | 1009.5 |
| 20260503224640 | 21 | 282 | 17.7 | 32.2 | 0.00 | 0.00 | 0.00 | 32 | 1009.7 |
| 20260503224139 | 21 | 281 | 22.5 | 32.2 | 0.00 | 0.00 | 0.00 | 31 | 1009.8 |
| 20260503223640 | 21 | 319 | 24.1 | 32.2 | 0.00 | 0.00 | 0.00 | 30 | 1009.8 |
| 20260503223140 | 21 | 286 | 22.5 | 30.6 | 0.00 | 0.00 | 0.00 | 30 | 1010.0 |
| 20260503222638 | 21 | 264 | 19.3 | 30.6 | 0.00 | 0.00 | 0.00 | 28 | 1009.9 |
| 20260503222139 | 21 | 300 | 24.1 | 30.6 | 0.00 | 0.00 | 0.00 | 29 | 1010.0 |
| 20260503221639 | 21 | 317 | 19.3 | 30.6 | 0.00 | 0.00 | 0.00 | 28 | 1010.3 |
| 20260503221139 | 21 | 269 | 17.7 | 29.0 | 0.00 | 0.00 | 0.00 | 29 | 1010.1 |
| 20260503220639 | 21 | 312 | 16.1 | 29.0 | 0.00 | 0.00 | 0.00 | 28 | 1010.4 |
| 20260503220140 | 21 | 275 | 17.7 | 29.0 | 0.00 | 0.00 | 0.00 | 28 | 1010.6 |
| 20260503215639 | 21 | 288 | 22.5 | 29.0 | 0.00 | 0.00 | 0.00 | 28 | 1010.6 |
| 20260503215137 | 21 | 264 | 20.9 | 29.0 | 0.00 | 0.00 | 0.00 | 27 | 1010.4 |
| 20260503214639 | 21 | 293 | 12.9 | 29.0 | 0.00 | 0.00 | 0.00 | 28 | 1010.8 |
| 20260503214137 | 21 | 288 | 19.3 | 32.2 | 0.00 | 0.00 | 0.00 | 29 | 1011.0 |
| 20260503213638 | 21 | 310 | 17.7 | 32.2 | 0.00 | 0.00 | 0.00 | 30 | 1011.0 |
| 20260503213138 | 21 | 303 | 16.1 | 25.7 | 0.00 | 0.00 | 0.00 | 30 | 1011.0 |
| 20260503212637 | 21 | 285 | 12.9 | 25.7 | 0.00 | 0.00 | 0.00 | 27 | 1011.0 |
| 20260503212139 | 20 | 310 | 9.7 | 29.0 | 0.00 | 0.00 | 0.00 | 29 | 1011.1 |
| 20260503211638 | 21 | 238 | 19.3 | 29.0 | 0.00 | 0.00 | 0.00 | 26 | 1011.3 |
| 20260503211138 | 21 | 266 | 19.3 | 27.4 | 0.00 | 0.00 | 0.00 | 30 | 1011.3 |
| 20260503210637 | 21 | 252 | 11.3 | 24.1 | 0.00 | 0.00 | 0.00 | 26 | 1011.4 |